Regional Weather Roundup
Issued by NWS

Home | Current Version | Previous Version | Graphics & Text | Print | Product List | Glossary On
Versions: 1 2 3 4 5 6 7 8 9 10 11 12 13 14 15 16 17 18 19 20 21 22 23 24 25 26 27 28 29 30 31 32 33 34 35 36 37 38 39 40 41 42 43 44 45 46 47 48 49 50
000
ASUS43 KMPX 030701
RWRMN
WEATHER ROUNDUP FOR MINNESOTA
NATIONAL WEATHER SERVICE TWIN CITIES/CHANHASSEN MN
100 AM CST SAT DEC 03 2016


NOTE: "FAIR" INDICATES FEW OR NO CLOUDS BELOW 12,000 FEET WITH NO
SIGNIFICANT WEATHER AND/OR OBSTRUCTIONS TO VISIBILITY. N/A MEANS
CURRENT SKY AND/OR WEATHER CONDITIONS ARE NOT AVAILABLE.

MNZ060>063-068>070-030800-
   Twin Cities Metro

CITY           SKY/WX    TMP DP  RH WIND       PRES   REMARKS
BLAINE         CLOUDY    30  27  86 NW5       30.29S WCI  25
LAKEVILLE      CLOUDY    28  21  74 SW5       30.30F WCI  23
SOUTH ST PAUL  CLOUDY    31  25  80 W8        30.30F WCI  23
LAKE ELMO      CLOUDY    32  28  86 SW6       30.30S WCI  26
$$
MNZ001>005-007-008-013>017-022>024-027-028-030800-
   Northwest Minnesota

CITY           SKY/WX    TMP DP  RH WIND       PRES   REMARKS
BEMIDJI        CLOUDY    25  19  78 W5        30.25S WCI  19
HALLOCK        CLOUDY    30  27  86 S6        30.22F WCI  24
ROSEAU         CLOUDY    27  21  80 SE3       30.24S
WARROAD        CLOUDY    25  19  80 CALM      30.24F
THIEF RVR FALL CLOUDY    27  21  78 SW9       30.25S WCI  18
CROOKSTON      CLOUDY    28  23  80 SW9       30.26F WCI  20
FOSSTON        CLOUDY    25  19  80 SW7       30.25F WCI  17
DETROIT LAKES  CLOUDY    27  21  80 SW5       30.26S WCI  21
MOORHEAD       CLOUDY    25  18  74 SW5       30.28F WCI  19
$$
MNZ006-009>011-018-025>026-030800-
   North Central Minnesota

CITY           SKY/WX    TMP DP  RH WIND       PRES   REMARKS
FLAG ISLAND    CLOUDY    25  21  86 W7        30.22F WCI  17
INTL FALLS     CLOUDY    23  19  85 SW3       30.24F
WASKISH        CLOUDY    25  21  86 NW5       30.24F WCI  19
BIG FORK       CLOUDY    25  19  80 SW3       30.25S
LONGVILLE      CLOUDY    25  19  80 NW3       30.26F
GRAND RAPIDS   CLOUDY    24  20  84 W5        30.27S WCI  18
CRANE LAKE     CLOUDY    21  19  93 SW3       30.27S
ORR            CLOUDY    21  19  93 CALM      30.22S
COOK           CLOUDY    21  21 100 CALM      30.25S
$$
MNZ012-019>021-037-030800-
   Northeast Minnesota

CITY           SKY/WX    TMP DP  RH WIND       PRES   REMARKS
DULUTH         CLOUDY    27  24  89 NW6       30.24R WCI  20
ELY            CLOUDY    25  25 100 W5        30.23R WCI  19
EVELETH        CLOUDY    25  22  91 NW5       30.25S WCI  19
DULUTH HARBOR  CLOUDY    30  27  86 W8        30.29S WCI  23
TWO HARBORS    CLOUDY    30  25  80 W5        30.23S WCI  25
GRAND MARAIS     N/A     32  26  78 VRB5      30.24F WCI  27
G MARAIS ARPRT CLOUDY    25  19  80 CALM      30.19S
$$
MNZ029>031-032-039>041-046>048-054>057-064-030800-
   West Central Minnesota

CITY           SKY/WX    TMP DP  RH WIND       PRES   REMARKS
FERGUS FALLS   CLOUDY    25  19  80 S3        30.32F
MORRIS         CLOUDY    27  21  80 W6        30.29S WCI  20
ELBOW LAKE     CLOUDY    25  19  80 CALM      30.28F
WADENA         CLOUDY    25  18  74 CALM      30.26F
GLENWOOD       CLOUDY    25  19  80 CALM      30.29R
APPLETON       CLOUDY    28  19  69 W3        30.31S
BENSON         CLOUDY    27  19  74 CALM      30.31R
ORTONVILLE     CLOUDY    27  18  69 CALM      30.30S
MADISON        CLOUDY    30  21  69 W3        30.31S
WILLMAR        CLOUDY    28  21  74 CALM      30.31S
$$
MNZ033>034-036-042>043-049>051-058-059-030800-
   Central Minnesota

CITY           SKY/WX    TMP DP  RH WIND       PRES   REMARKS
PAYNESVILLE    CLOUDY    27  21  80 W8        30.30S WCI  18
AITKIN         CLOUDY    28  21  74 W3        30.26S
PINE RIVER     CLOUDY    25  21  86 CALM      30.29F
STAPLES        CLOUDY    25  19  80 CALM      30.27F
LONG PRAIRIE   CLOUDY    27  19  74 CALM      30.28S
LITTLE FALLS   CLOUDY    28  21  74 CALM      30.29R
LITCHFIELD     CLOUDY    28  21  74 CALM      30.30S
BUFFALO        CLOUDY    29  23  79 SW3       30.31S
MAPLE LAKE     CLOUDY    29  25  84 SW5       30.30F WCI  24
$$
MNZ037-044-045-052-053-030800-
   East Central Minnesota

CITY           SKY/WX    TMP DP  RH WIND       PRES   REMARKS
PRINCETON      CLOUDY    28  25  86 CALM      30.30R
MORA           CLOUDY    28  23  80 W6        30.30S WCI  22
CAMBRIDGE      MIX PCPN  30  21  69 CALM      30.28S
RUSH CITY      CLOUDY    28  23  80 W3        30.29S
MOOSE LAKE     CLOUDY    28  23  80 CALM      30.25S
HINCKLEY       CLOUDY    30  27  86 NW3       30.28S
CLOQUET        CLOUDY    27  21  80 W7        30.25S WCI  19
MCGREGOR       CLOUDY    28  25  86 W5        30.27S WCI  23
$$
MNZ071>073-080-081-089-090-097-098-030800-
   Southwest Minnesota

CITY           SKY/WX    TMP DP  RH WIND       PRES   REMARKS
MONTEVIDEO     CLOUDY    28  27  93 NW5       30.33S WCI  23
GRANITE FALLS  CLOUDY    30  25  83 NW5       30.32F WCI  25
CANBY          CLOUDY    28  20  71 CALM      30.31F
MARSHALL       CLOUDY    27  22  81 W6        30.31F WCI  20
OLIVIA         CLOUDY    30  23  74 CALM      30.30F
PIPESTONE      CLOUDY    27  21  80 N7        30.26F WCI  19
WINDOM         CLOUDY    28  19  69 NW13      30.28F WCI  18
WORTHINGTON    CLOUDY    27  22  81 NW7       30.28F WCI  19
JACKSON        CLOUDY    28  21  74 NW8       30.28F WCI  20
TRACY          CLOUDY    28  20  71 W6        30.30F WCI  22
SLAYTON        CLOUDY    26  21  83 W7        30.29F WCI  18
$$
MNZ065>067-074>077-082>085-091>093-030800-
   South Central Minnesota

CITY           SKY/WX    TMP DP  RH WIND       PRES   REMARKS
MANKATO        MIX PCPN  29  23  78 CALM      30.30F
NEW ULM        CLOUDY    28  21  74 W3        30.31S
ST JAMES       CLOUDY    28  25  86 W7        30.30F WCI  21
FAIRMONT       CLOUDY    30  21  69 NW12      30.30F WCI  20
GLENCOE        CLOUDY    30  25  80 W5        30.30F WCI  25
FARIBAULT      CLOUDY    28  21  74 W5        30.31S WCI  23
OWATONNA       CLOUDY    28  21  74 NW7       30.30S WCI  21
WASECA         CLOUDY    30  25  80 CALM      30.31F
ALBERT LEA     CLOUDY    34  27  75 CALM      30.30S
$$
MNZ078>079-086>088-094>096-030800-
   Southeast Minnesota

CITY           SKY/WX    TMP DP  RH WIND       PRES   REMARKS
ROCHESTER      CLOUDY    28  22  78 W10       30.29F WCI  19
RED WING       CLOUDY    30  21  69 W6        30.30F WCI  24
STANTON        CLOUDY    31  23  73 SW5       30.30S WCI  26
DODGE CENTER   CLOUDY    27  21  80 W6        30.29F WCI  20
WINONA         CLOUDY    32  23  69 W5        30.32F WCI  27
AUSTIN         CLOUDY    28  21  74 NW5       30.29F WCI  23
PRESTON        CLOUDY    27  20  76 NW7       30.30F WCI  20
$$
ABBREVIATIONS USED IN REMARKS
   TC - TEMPERATURES IN CELSIUS
  WCI - WIND CHILL INDEX
   HX - HEAT INDEX
  VSB - VISIBILITY
$$




USA.gov is the U.S. government's official web portal to all federal, state and local government web resources and services.